Zurück zum Katalog

STARLINK-3652

AktivKommunikationVLEO
NORAD 51991·PAYLOAD·🇺🇸 United States

Gestartet Mar 9, 2022 von Cape Canaveral Space Force Station

Loading…

Nächste Überflüge (nächste 24 Stunden)

TLE

AktuellSource: CelesTrak SupGP

Epoche: Sep 15, 2026, 02:28 UTC

1 51991C 22025AM  26258.10326389 -.00034201  00000+0 -10100-2 0  2584
2 51991  53.1575 253.0071 0001355  83.0393 248.8472 15.34422347    12

Verfolge STARLINK-3652 in Echtzeit mit AllMySat

Download on the App Store